This demonstration page uses our WeatherBlox Daily Observations layout. Learn more.

Left ArrowRight Arrow

38.88101, -77.10428

Hourly Observations for February 26, 2021

Temp ( °F °C ) Dew Point ( °F °C ) Humidity (%) Winds ( mph kmh ) Pressure ( in mb ) Visibility ( mi km ) Precip ( " mm )
12:52 am 00:52 Clear 41 5 32 0 70 70 Calm 30.32 1027 10 16.0934 0 0
1:52 am 01:52 Cloudy 40 4.4 29 -1.7 65 65 S 3 6 30.34 1027 10 16.0934 0 0
2:52 am 02:52 Cloudy 41 5 35 1.7 79 79 Calm 30.34 1028 10 16.0934 0 0
3:52 am 03:52 Cloudy 39 3.9 34 1.1 82 82 S 6 9 30.34 1028 10 16.0934 0 0
4:52 am 04:52 Cloudy 42 5.6 28 -2.2 58 58 Calm 30.38 1029 10 16.0934 0 0
5:52 am 05:52 Cloudy 43 6.1 22 -5.6 43 43 NW 7 11 30.41 1030 10 16.0934 0 0
6:52 am 06:52 Mostly Cloudy 41 5 22 -5.6 47 47 NNW 8 13 30.45 1031 10 16.0934 0 0
7:52 am 07:52 Mostly Cloudy 43 6.1 23 -5 45 45 NNE 13 20 30.47 1032 10 16.0934 0 0
8:52 am 08:52 Partly Cloudy 45 7.2 24 -4.4 44 44 NE 13 20 30.48 1032 10 16.0934 0 0
9:52 am 09:52 Mostly Cloudy 45 7.2 23 -5 42 42 NE 10 17 30.47 1032 10 16.0934 0 0
10:52 am 10:52 Mostly Cloudy 48 8.9 21 -6.1 34 34 NE 8 13 30.47 1032 10 16.0934 0 0
11:52 am 11:52 Mostly Cloudy 49 9.4 20 -6.7 32 32 E 6 9 30.45 1031 10 16.0934 0 0
12:52 pm 12:52 Cloudy 49 9.4 21 -6.1 33 33 SE 10 17 30.42 1030 10 16.0934 0 0
1:52 pm 13:52 Cloudy 51 10.6 21 -6.1 31 31 ESE 9 15 30.4 1029 10 16.0934 0 0
2:52 pm 14:52 Cloudy 49 9.4 22 -5.6 35 35 SE 8 13 30.41 1030 10 16.0934 0 0
3:52 pm 15:52 Cloudy 49 9.4 23 -5 36 36 ESE 7 11 30.42 1030 10 16.0934 0 0
4:52 pm 16:52 Cloudy 48 8.9 25 -3.9 41 41 ESE 13 20 30.4 1029 10 16.0934 0 0
5:52 pm 17:52 Cloudy 47 8.3 23 -5 39 39 SSE 8 13 30.42 1030 10 16.0934 0 0
6:52 pm 18:52 Cloudy with Light Rain 42 5.6 32 0 68 68 SSE 15 24 30.45 1031 8 12.87472 0.001 0.001
7:02 pm 19:02 Cloudy with Light Rain 41 5 34 1.1 76 76 S 13 20 30.46 1032 10 16.0934 0.001 0.001
7:52 pm 19:52 Cloudy with Light Rain 39 3.9 35 1.7 86 86 SE 10 17 30.44 1031 7 11.26538 0.04 1.016
8:25 pm 20:25 Cloudy with Light Rain 39 3.9 36 2.2 89 89 SE 12 19 30.43 1031 10 16.0934 0.02 0.508
8:52 pm 20:52 Cloudy with Light Rain 39 3.9 35 1.7 86 86 ESE 7 11 30.42 1030 10 16.0934 0.02 0.508
9:20 pm 21:20 Cloudy with Light Rain 39 3.9 35 1.7 86 86 ESE 8 13 30.42 1030 9 14.48406 0.02 0.508
9:36 pm 21:36 Cloudy with Light Rain 39 3.9 35 1.7 86 86 E 7 11 30.42 1030 10 16.0934 0.02 0.508
9:52 pm 21:52 Cloudy with Light Rain 38 3.3 35 1.7 89 89 ESE 6 9 30.41 1030 9 14.48406 0.03 0.762
10:52 pm 22:52 Cloudy with Mist and Fog 38 3.3 35 1.7 89 89 ENE 5 7 30.4 1029 5 8.0467 0.05 1.27
11:10 pm 23:10 Cloudy with Light Rain 38 3.3 35 1.7 89 89 E 5 7 30.39 1029 5 8.0467 0.02 0.508
11:29 pm 23:29 Cloudy with Light Rain 38 3.3 35 1.7 89 89 NE 5 7 30.38 1029 5 8.0467 0.04 1.016
11:34 pm 23:34 Cloudy with Light Rain 38 3.3 36 2.2 93 93 NE 5 7 30.38 1029 5 8.0467 0.04 1.016
11:52 pm 23:52 Cloudy with Light Rain 38 3.3 36 2.2 93 93 ENE 5 7 30.36 1028 5 8.0467 0.05 1.27

Powered by AerisWeather